,,,PA_Meas_PMT16A,,PR_Meas_QMR101_102,,RH_Meas_QMH101,,SR_Meas_QMS101,,TA_Meas_QMH101,,GenWind,,GenWind,
date,time,status,PA,status,PR,status,RH,status,SR,status,TA,status,DirAvg,status,SpdAvg,
2008-09-11, 00:00:05,VALID,1004.26,VALID,0,VALID,94.9796,VALID,0.100563,VALID,24.015,VALID,348,VALID,0.0078125,
2008-09-11, 00:01:05,VALID,1004.24,VALID,0,VALID,95.0177,VALID,0.100563,VALID,24.0345,VALID,348,VALID,0.0929687,
2008-09-11, 00:02:05,VALID,1004.24,VALID,0,VALID,95.0253,VALID,0.100563,VALID,24.0326,VALID,348,VALID,0.01875,
2008-09-11, 00:03:05,VALID,1004.21,VALID,0,VALID,94.9643,VALID,0,VALID,24.0539,VALID,348,VALID,0,
2008-09-11, 00:04:05,VALID,1004.19,VALID,0,VALID,94.9567,VALID,0,VALID,24.0326,VALID,348,VALID,0,
2008-09-11, 00:05:05,VALID,1004.18,VALID,0,VALID,94.9109,VALID,0,VALID,24.0539,VALID,348,VALID,0,
2008-09-11, 00:06:05,VALID,1004.22,VALID,0,VALID,94.9262,VALID,0,VALID,24.0539,VALID,348,VALID,0,
2008-09-11, 00:07:05,VALID,1004.2,VALID,0,VALID,94.949,VALID,0.100563,VALID,24.0539,VALID,348,VALID,0,
2008-09-11, 00:08:05,VALID,1004.19,VALID,0,VALID,94.9109,VALID,0.100563,VALID,24.0539,VALID,348,VALID,0,
2008-09-11, 00:09:05,VALID,1004.24,VALID,0,VALID,94.9033,VALID,0,VALID,24.0345,VALID,348,VALID,0,
2008-09-11, 00:10:05,VALID,1004.26,VALID,0,VALID,94.8422,VALID,0,VALID,24.0132,VALID,348,VALID,0,
2008-09-11, 00:11:05,VALID,1004.25,VALID,0,VALID,94.7202,VALID,0.100563,VALID,23.9955,VALID,348,VALID,0,
2008-09-11, 00:12:05,VALID,1004.26,VALID,0,VALID,94.6515,VALID,0,VALID,23.9371,VALID,348,VALID,0,
2008-09-11, 00:13:05,VALID,1004.28,VALID,0,VALID,94.6363,VALID,0.100563,VALID,23.8964,VALID,348,VALID,0,
2008-09-11, 00:14:05,VALID,1004.31,VALID,0,VALID,94.6744,VALID,0.100563,VALID,23.9177,VALID,348,VALID,0,
2008-09-11, 00:15:05,VALID,1004.34,VALID,0,VALID,94.7354,VALID,0.100563,VALID,23.8787,VALID,348,VALID,0,
2008-09-11, 00:16:05,VALID,1004.34,VALID,0,VALID,94.7965,VALID,0,VALID,23.8769,VALID,348,VALID,0,
2008-09-11, 00:17:05,VALID,1004.31,VALID,0,VALID,94.9872,VALID,0,VALID,23.9177,VALID,348,VALID,0,
2008-09-11, 00:18:05,VALID,1004.33,VALID,0,VALID,94.8117,VALID,0.100563,VALID,23.8769,VALID,348,VALID,0,
2008-09-11, 00:19:05,VALID,1004.35,VALID,0,VALID,94.7049,VALID,0.100563,VALID,23.8575,VALID,348,VALID,0,
2008-09-11, 00:20:05,VALID,1004.33,VALID,0,VALID,94.7202,VALID,0.100563,VALID,23.8185,VALID,348,VALID,0,
2008-09-11, 00:21:05,VALID,1004.35,VALID,0,VALID,94.7278,VALID,0.100563,VALID,23.7991,VALID,348,VALID,0,
2008-09-11, 00:22:05,VALID,1004.34,VALID,0,VALID,94.8117,VALID,0,VALID,23.8203,VALID,348,VALID,0,
2008-09-11, 00:23:05,VALID,1004.36,VALID,0,VALID,94.9567,VALID,0.100563,VALID,23.8185,VALID,316,VALID,0.548828,
2008-09-11, 00:24:05,VALID,1004.37,VALID,0,VALID,95.0101,VALID,0,VALID,23.8611,VALID,305,VALID,0.253125,
2008-09-11, 00:25:05,VALID,1004.34,VALID,0,VALID,94.9872,VALID,0,VALID,23.8787,VALID,305,VALID,0.0476562,
2008-09-11, 00:26:05,VALID,1004.32,VALID,0,VALID,95.0024,VALID,0,VALID,23.9,VALID,305,VALID,0.242969,
2008-09-11, 00:27:05,VALID,1004.27,VALID,0,VALID,95.0406,VALID,0,VALID,23.9177,VALID,305,VALID,0,
2008-09-11, 00:28:05,VALID,1004.28,VALID,0,VALID,95.0024,VALID,0,VALID,23.9177,VALID,305,VALID,0,
2008-09-11, 00:29:05,VALID,1004.28,VALID,0,VALID,94.8651,VALID,0,VALID,23.8982,VALID,305,VALID,0,
2008-09-11, 00:30:05,VALID,1004.27,VALID,0,VALID,94.7888,VALID,0,VALID,23.8398,VALID,305,VALID,0,
2008-09-11, 00:31:05,VALID,1004.23,VALID,0,VALID,94.7736,VALID,0,VALID,23.8221,VALID,305,VALID,0,
2008-09-11, 00:32:05,VALID,1004.25,VALID,0,VALID,94.8041,VALID,0,VALID,23.7814,VALID,305,VALID,0.353906,
2008-09-11, 00:33:05,VALID,1004.23,VALID,0,VALID,94.7354,VALID,0,VALID,23.7443,VALID,305,VALID,0.552734,
2008-09-11, 00:34:05,VALID,1004.22,VALID,0,VALID,94.7431,VALID,0,VALID,23.6841,VALID,305,VALID,0.267188,
2008-09-11, 00:35:05,VALID,1004.22,VALID,0,VALID,94.8117,VALID,0,VALID,23.6646,VALID,305,VALID,0.292578,
2008-09-11, 00:36:05,VALID,1004.22,VALID,0,VALID,95.033,VALID,0,VALID,23.7035,VALID,327,VALID,0.480859,
2008-09-11, 00:37:05,VALID,1004.21,VALID,0,VALID,95.094,VALID,0,VALID,23.723,VALID,348,VALID,0.534766,
2008-09-11, 00:38:05,VALID,1004.2,VALID,0,VALID,95.0635,VALID,0,VALID,23.723,VALID,348,VALID,0.451562,
2008-09-11, 00:39:05,VALID,1004.19,VALID,0,VALID,95.0177,VALID,0,VALID,23.723,VALID,348,VALID,0.4625,
2008-09-11, 00:40:05,VALID,1004.15,VALID,0,VALID,95.1093,VALID,0,VALID,23.7248,VALID,353,VALID,0.583594,
2008-09-11, 00:41:05,VALID,1004.15,VALID,0,VALID,95.1627,VALID,0,VALID,23.7425,VALID,352,VALID,0.163281,
2008-09-11, 00:42:05,VALID,1004.08,VALID,0,VALID,95.2161,VALID,0,VALID,23.7832,VALID,352,VALID,0,
2008-09-11, 00:43:05,VALID,1004.09,VALID,0,VALID,95.1855,VALID,0,VALID,23.7832,VALID,352,VALID,0.021875,
2008-09-11, 00:44:05,VALID,1004.09,VALID,0,VALID,95.2389,VALID,0,VALID,23.8221,VALID,352,VALID,0.236328,
2008-09-11, 00:45:05,VALID,1004.08,VALID,0,VALID,95.2771,VALID,0,VALID,23.8398,VALID,352,VALID,0.479688,
2008-09-11, 00:46:05,VALID,1004.08,VALID,0,VALID,95.2771,VALID,0,VALID,23.8593,VALID,351,VALID,0.496094,
2008-09-11, 00:47:05,VALID,1004.07,VALID,0,VALID,95.094,VALID,0,VALID,23.8611,VALID,351,VALID,0.420312,
2008-09-11, 00:48:05,VALID,1004.04,VALID,0,VALID,95.0482,VALID,0,VALID,23.8203,VALID,351,VALID,0.336328,
2008-09-11, 00:49:05,VALID,1004.05,VALID,0,VALID,95.0558,VALID,0,VALID,23.8203,VALID,351,VALID,0.459375,
2008-09-11, 00:50:05,VALID,1004.02,VALID,0,VALID,95.1016,VALID,0,VALID,23.8203,VALID,351,VALID,0.403516,
2008-09-11, 00:51:05,VALID,1003.97,VALID,0,VALID,95.1779,VALID,0,VALID,23.8611,VALID,351,VALID,0.417578,
2008-09-11, 00:52:05,VALID,1003.94,VALID,0,VALID,95.1474,VALID,0,VALID,23.8611,VALID,351,VALID,0.482422,
2008-09-11, 00:53:05,VALID,1003.88,VALID,0,VALID,95.1855,VALID,0,VALID,23.8398,VALID,351,VALID,0.478906,
2008-09-11, 00:54:05,VALID,1003.86,VALID,0,VALID,95.2008,VALID,0.100563,VALID,23.8982,VALID,351,VALID,0.492969,
2008-09-11, 00:55:05,VALID,1003.89,VALID,0,VALID,95.2695,VALID,0,VALID,23.8964,VALID,351,VALID,0.465625,
2008-09-11, 00:56:05,VALID,1003.9,VALID,0,VALID,95.2542,VALID,0.100563,VALID,23.8964,VALID,351,VALID,0.424609,
2008-09-11, 00:57:05,VALID,1003.89,VALID,0,VALID,95.2542,VALID,0.100563,VALID,23.9566,VALID,351,VALID,0.528906,
2008-09-11, 00:58:05,VALID,1003.89,VALID,0,VALID,95.2618,VALID,0,VALID,23.9353,VALID,350,VALID,0.396484,
2008-09-11, 00:59:05,VALID,1003.84,VALID,0,VALID,95.2237,VALID,0,VALID,23.9548,VALID,350,VALID,0.439844,
2008-09-11, 01:00:05,VALID,1003.79,VALID,0,VALID,95.2771,VALID,0.100563,VALID,23.9548,VALID,350,VALID,0.434766,
2008-09-11, 01:01:05,VALID,1003.79,VALID,0,VALID,95.3915,VALID,0.100563,VALID,24.0132,VALID,350,VALID,0.633984,
2008-09-11, 01:02:04,VALID,1003.75,VALID,0,VALID,95.2923,VALID,0.100563,VALID,24.0132,VALID,350,VALID,0.413281,
2008-09-11, 01:03:04,VALID,1003.77,VALID,0,VALID,95.2389,VALID,0.100563,VALID,24.0734,VALID,350,VALID,0.608594,
2008-09-11, 01:04:04,VALID,1003.71,VALID,0,VALID,95.2389,VALID,0,VALID,24.0326,VALID,351,VALID,0.625391,
2008-09-11, 01:05:04,VALID,1003.7,VALID,0,VALID,95.2161,VALID,0.100563,VALID,24.0734,VALID,352,VALID,0.726563,
2008-09-11, 01:06:04,VALID,1003.66,VALID,0,VALID,95.2923,VALID,0.100563,VALID,24.0716,VALID,352,VALID,0.558594,
2008-09-11, 01:07:04,VALID,1003.65,VALID,0,VALID,95.3076,VALID,0.100563,VALID,24.0929,VALID,352,VALID,0.627734,
2008-09-11, 01:08:04,VALID,1003.62,VALID,0,VALID,95.4526,VALID,0.100563,VALID,24.1707,VALID,352,VALID,0.567187,
2008-09-11, 01:09:04,VALID,1003.62,VALID,0,VALID,95.4678,VALID,0,VALID,24.2115,VALID,352,VALID,0.390625,
2008-09-11, 01:10:04,VALID,1003.6,VALID,0,VALID,95.4144,VALID,0,VALID,24.2717,VALID,352,VALID,0.562109,
2008-09-11, 01:11:04,VALID,1003.59,VALID,0,VALID,95.3763,VALID,0,VALID,24.2504,VALID,352,VALID,0.337109,
2008-09-11, 01:12:04,VALID,1003.55,VALID,0,VALID,95.2466,VALID,0,VALID,24.2291,VALID,352,VALID,0.335156,
2008-09-11, 01:13:04,VALID,1003.53,VALID,0,VALID,95.2847,VALID,0,VALID,24.2504,VALID,352,VALID,0.434766,
2008-09-11, 01:14:04,VALID,1003.52,VALID,0,VALID,95.3229,VALID,0,VALID,24.2681,VALID,352,VALID,0.363281,
2008-09-11, 01:15:04,VALID,1003.54,VALID,0,VALID,95.4373,VALID,0,VALID,24.307,VALID,352,VALID,0.362891,
2008-09-11, 01:16:04,VALID,1003.53,VALID,0,VALID,95.4068,VALID,0,VALID,24.3478,VALID,352,VALID,0.06875,
2008-09-11, 01:17:04,VALID,1003.5,VALID,0,VALID,95.3991,VALID,0,VALID,24.3654,VALID,352,VALID,0.341797,
2008-09-11, 01:18:04,VALID,1003.52,VALID,0,VALID,95.2771,VALID,0,VALID,24.3673,VALID,352,VALID,0.594922,
2008-09-11, 01:19:04,VALID,1003.56,VALID,0,VALID,95.2008,VALID,0,VALID,24.3673,VALID,352,VALID,0.535547,
2008-09-11, 01:20:04,VALID,1003.53,VALID,0,VALID,95.1855,VALID,0,VALID,24.3265,VALID,352,VALID,0.758203,
2008-09-11, 01:21:04,VALID,1003.53,VALID,0,VALID,95.1321,VALID,0,VALID,24.307,VALID,352,VALID,0.442187,
2008-09-11, 01:22:04,VALID,1003.48,VALID,0,VALID,95.3229,VALID,0,VALID,24.3459,VALID,352,VALID,0.344141,
2008-09-11, 01:23:04,VALID,1003.51,VALID,0,VALID,95.4373,VALID,0,VALID,24.4062,VALID,352,VALID,0.330078,
2008-09-11, 01:24:04,VALID,1003.53,VALID,0,VALID,95.4754,VALID,0,VALID,24.4433,VALID,352,VALID,0.521094,
2008-09-11, 01:25:04,VALID,1003.51,VALID,0,VALID,95.3534,VALID,0,VALID,24.4628,VALID,352,VALID,0.459766,
2008-09-11, 01:26:04,VALID,1003.5,VALID,0,VALID,95.2847,VALID,0,VALID,24.4841,VALID,352,VALID,0.400781,
2008-09-11, 01:27:04,VALID,1003.49,VALID,0,VALID,95.2161,VALID,0,VALID,24.4628,VALID,352,VALID,0.384375,
2008-09-11, 01:28:04,VALID,1003.51,VALID,0,VALID,95.1398,VALID,0,VALID,24.4646,VALID,352,VALID,0.309766,
2008-09-11, 01:29:04,VALID,1003.49,VALID,0,VALID,95.1245,VALID,0,VALID,24.4646,VALID,352,VALID,0.19375,
2008-09-11, 01:30:04,VALID,1003.48,VALID,0,VALID,95.1321,VALID,0,VALID,24.4433,VALID,352,VALID,0.239063,
2008-09-11, 01:31:04,VALID,1003.48,VALID,0,VALID,95.1169,VALID,0,VALID,24.4646,VALID,352,VALID,0.0195313,
2008-09-11, 01:32:04,VALID,1003.48,VALID,0,VALID,95.1245,VALID,0,VALID,24.4433,VALID,352,VALID,0,
2008-09-11, 01:33:04,VALID,1003.47,VALID,0,VALID,95.0406,VALID,0,VALID,24.4646,VALID,352,VALID,0,
2008-09-11, 01:34:04,VALID,1003.51,VALID,0,VALID,94.9796,VALID,0,VALID,24.4062,VALID,352,VALID,0,
2008-09-11, 01:35:04,VALID,1003.52,VALID,0,VALID,94.9338,VALID,0,VALID,24.4062,VALID,352,VALID,0,
2008-09-11, 01:36:04,VALID,1003.52,VALID,0,VALID,94.949,VALID,0,VALID,24.3867,VALID,353,VALID,0,
2008-09-11, 01:37:04,VALID,1003.52,VALID,0,VALID,94.9109,VALID,0,VALID,24.3673,VALID,353,VALID,0,
2008-09-11, 01:38:04,VALID,1003.51,VALID,0,VALID,94.9948,VALID,0,VALID,24.3673,VALID,353,VALID,0,
2008-09-11, 01:39:04,VALID,1003.46,VALID,0,VALID,94.9719,VALID,0,VALID,24.307,VALID,353,VALID,0,
2008-09-11, 01:40:04,VALID,1003.49,VALID,0,VALID,95.0253,VALID,0,VALID,24.3088,VALID,353,VALID,0,
2008-09-11, 01:41:04,VALID,1003.48,VALID,0,VALID,95.1855,VALID,0,VALID,24.3478,VALID,353,VALID,0,
2008-09-11, 01:42:04,VALID,1003.5,VALID,0,VALID,95.3305,VALID,0,VALID,24.3849,VALID,353,VALID,0.293359,
2008-09-11, 01:43:04,VALID,1003.52,VALID,0,VALID,95.3457,VALID,0,VALID,24.4451,VALID,353,VALID,0.333203,
2008-09-11, 01:44:04,VALID,1003.53,VALID,0,VALID,95.2237,VALID,0,VALID,24.4451,VALID,353,VALID,0.465234,
2008-09-11, 01:45:04,VALID,1003.56,VALID,0,VALID,95.1474,VALID,0,VALID,24.4257,VALID,353,VALID,0.297266,
2008-09-11, 01:46:04,VALID,1003.62,VALID,0,VALID,95.0558,VALID,0,VALID,24.4062,VALID,353,VALID,0.0292969,
2008-09-11, 01:47:04,VALID,1003.57,VALID,0,VALID,95.094,VALID,0,VALID,24.3654,VALID,353,VALID,0.150391,
2008-09-11, 01:48:04,VALID,1003.6,VALID,0,VALID,95.0787,VALID,0,VALID,24.3867,VALID,353,VALID,0.280469,
2008-09-11, 01:49:04,VALID,1003.6,VALID,0,VALID,95.0253,VALID,0,VALID,24.3673,VALID,353,VALID,0.225,
2008-09-11, 01:50:04,VALID,1003.66,VALID,0,VALID,95.0024,VALID,0,VALID,24.3673,VALID,353,VALID,0.296094,
2008-09-11, 01:51:04,VALID,1003.63,VALID,0,VALID,94.9719,VALID,0,VALID,24.3478,VALID,353,VALID,0.273438,
2008-09-11, 01:52:04,VALID,1003.67,VALID,0,VALID,95.0406,VALID,0,VALID,24.3283,VALID,353,VALID,0.253516,
2008-09-11, 01:53:04,VALID,1003.67,VALID,0,VALID,95.0711,VALID,0,VALID,24.3478,VALID,353,VALID,0.273828,
2008-09-11, 01:54:04,VALID,1003.68,VALID,0,VALID,95.0101,VALID,0,VALID,24.3088,VALID,353,VALID,0.220703,
2008-09-11, 01:55:04,VALID,1003.65,VALID,0,VALID,95.0024,VALID,0,VALID,24.2681,VALID,353,VALID,0.405469,
2008-09-11, 01:56:04,VALID,1003.68,VALID,0,VALID,95.0558,VALID,0,VALID,24.2875,VALID,353,VALID,0.504297,
2008-09-11, 01:57:04,VALID,1003.68,VALID,0,VALID,95.0406,VALID,0,VALID,24.2894,VALID,353,VALID,0.434375,
2008-09-11, 01:58:04,VALID,1003.68,VALID,0,VALID,95.1093,VALID,0,VALID,24.3088,VALID,353,VALID,0.417969,
2008-09-11, 01:59:04,VALID,1003.68,VALID,0,VALID,95.0787,VALID,0,VALID,24.2894,VALID,353,VALID,0.189453,
2008-09-11, 02:00:04,VALID,1003.69,VALID,0,VALID,95.0406,VALID,0,VALID,24.2699,VALID,353,VALID,0,
2008-09-11, 02:01:04,VALID,1003.65,VALID,0,VALID,95.033,VALID,0,VALID,24.2291,VALID,353,VALID,0,
2008-09-11, 02:02:04,VALID,1003.6,VALID,0,VALID,95.0635,VALID,0,VALID,24.231,VALID,353,VALID,0,
2008-09-11, 02:03:04,VALID,1003.55,VALID,0,VALID,95.094,VALID,0,VALID,24.231,VALID,353,VALID,0,
2008-09-11, 02:04:04,VALID,1003.55,VALID,0,VALID,95.0711,VALID,0,VALID,24.2115,VALID,353,VALID,0,
2008-09-11, 02:05:04,VALID,1003.53,VALID,0,VALID,95.0787,VALID,0,VALID,24.1902,VALID,353,VALID,0,
2008-09-11, 02:06:04,VALID,1003.55,VALID,0,VALID,95.1016,VALID,0,VALID,24.231,VALID,353,VALID,0,
2008-09-11, 02:07:04,VALID,1003.52,VALID,0,VALID,95.1093,VALID,0,VALID,24.231,VALID,353,VALID,0,
2008-09-11, 02:08:04,VALID,1003.52,VALID,0,VALID,95.0864,VALID,0,VALID,24.192,VALID,353,VALID,0,
2008-09-11, 02:09:04,VALID,1003.48,VALID,0,VALID,95.0787,VALID,0,VALID,24.192,VALID,353,VALID,0,
2008-09-11, 02:10:04,VALID,1003.48,VALID,0,VALID,95.0787,VALID,0,VALID,24.1726,VALID,353,VALID,0,
2008-09-11, 02:11:04,VALID,1003.44,VALID,0,VALID,95.0635,VALID,0,VALID,24.1726,VALID,353,VALID,0,
2008-09-11, 02:12:04,VALID,1003.46,VALID,0,VALID,95.1245,VALID,0,VALID,24.1531,VALID,353,VALID,0,
2008-09-11, 02:13:04,VALID,1003.45,VALID,0,VALID,95.1245,VALID,0,VALID,24.1318,VALID,353,VALID,0,
2008-09-11, 02:14:04,VALID,1003.47,VALID,0,VALID,95.1093,VALID,0,VALID,24.1336,VALID,353,VALID,0,
2008-09-11, 02:15:04,VALID,1003.51,VALID,0,VALID,95.1169,VALID,0,VALID,24.0929,VALID,353,VALID,0,
2008-09-11, 02:16:04,VALID,1003.53,VALID,0,VALID,95.1321,VALID,0,VALID,24.0947,VALID,353,VALID,0,
2008-09-11, 02:17:04,VALID,1003.55,VALID,0,VALID,95.1627,VALID,0,VALID,24.0752,VALID,353,VALID,0,
2008-09-11, 02:18:04,VALID,1003.58,VALID,0,VALID,95.1627,VALID,0,VALID,24.0752,VALID,353,VALID,0,
2008-09-11, 02:19:04,VALID,1003.62,VALID,0,VALID,95.1321,VALID,0,VALID,24.0752,VALID,353,VALID,0,
2008-09-11, 02:20:04,VALID,1003.63,VALID,0,VALID,95.1245,VALID,0,VALID,24.0557,VALID,353,VALID,0.0441406,
2008-09-11, 02:21:04,VALID,1003.64,VALID,0,VALID,95.1016,VALID,0,VALID,23.9955,VALID,353,VALID,0.427344,
2008-09-11, 02:22:04,VALID,1003.61,VALID,0,VALID,95.0711,VALID,0,VALID,23.9371,VALID,353,VALID,0.467578,
2008-09-11, 02:23:04,VALID,1003.6,VALID,0,VALID,95.1321,VALID,0,VALID,23.9371,VALID,353,VALID,0.321875,
2008-09-11, 02:24:04,VALID,1003.53,VALID,0,VALID,95.1321,VALID,0,VALID,23.9195,VALID,353,VALID,0.160547,
2008-09-11, 02:25:04,VALID,1003.58,VALID,0,VALID,95.1398,VALID,0,VALID,23.8787,VALID,353,VALID,0.0105469,
2008-09-11, 02:26:04,VALID,1003.59,VALID,0,VALID,95.1703,VALID,0,VALID,23.8805,VALID,353,VALID,0,
2008-09-11, 02:27:04,VALID,1003.64,VALID,0,VALID,95.1932,VALID,0,VALID,23.8593,VALID,353,VALID,0,
2008-09-11, 02:28:04,VALID,1003.66,VALID,0,VALID,95.2847,VALID,0,VALID,23.9,VALID,353,VALID,0.384375,
2008-09-11, 02:29:04,VALID,1003.68,VALID,0,VALID,95.3,VALID,0,VALID,23.9,VALID,353,VALID,0.207031,
2008-09-11, 02:30:04,VALID,1003.71,VALID,0,VALID,95.3229,VALID,0,VALID,23.8982,VALID,353,VALID,0.0183594,
2008-09-11, 02:31:04,VALID,1003.71,VALID,0,VALID,95.3,VALID,0,VALID,23.8805,VALID,353,VALID,0,
2008-09-11, 02:32:04,VALID,1003.7,VALID,0,VALID,95.3076,VALID,0,VALID,23.8805,VALID,353,VALID,0,
2008-09-11, 02:33:04,VALID,1003.75,VALID,0,VALID,95.3152,VALID,0,VALID,23.8805,VALID,353,VALID,0,
2008-09-11, 02:34:04,VALID,1003.77,VALID,0,VALID,95.3839,VALID,0,VALID,23.8805,VALID,353,VALID,0,
2008-09-11, 02:35:04,VALID,1003.76,VALID,0,VALID,95.3534,VALID,0,VALID,23.8593,VALID,353,VALID,0.205469,
2008-09-11, 02:36:04,VALID,1003.75,VALID,0,VALID,95.3381,VALID,0,VALID,23.8805,VALID,353,VALID,0.441016,
2008-09-11, 02:37:04,VALID,1003.76,VALID,0,VALID,95.1627,VALID,0,VALID,23.7832,VALID,353,VALID,0.489844,
2008-09-11, 02:38:04,VALID,1003.75,VALID,0,VALID,95.155,VALID,0,VALID,23.7425,VALID,353,VALID,0.553906,
2008-09-11, 02:39:04,VALID,1003.72,VALID,0,VALID,95.155,VALID,0,VALID,23.6841,VALID,353,VALID,0.466016,
2008-09-11, 02:40:04,VALID,1003.67,VALID,0,VALID,95.155,VALID,0,VALID,23.6469,VALID,353,VALID,0.350781,
2008-09-11, 02:41:04,VALID,1003.63,VALID,0,VALID,95.3534,VALID,0,VALID,23.6859,VALID,353,VALID,0.5,
2008-09-11, 02:42:04,VALID,1003.63,VALID,0,VALID,95.4907,VALID,0,VALID,23.6841,VALID,353,VALID,0.616797,
2008-09-11, 02:43:04,VALID,1003.61,VALID,0,VALID,95.5212,VALID,0,VALID,23.7035,VALID,353,VALID,0.794922,
2008-09-11, 02:44:04,VALID,1003.57,VALID,0,VALID,95.5822,VALID,0,VALID,23.7637,VALID,352,VALID,0.675,
2008-09-11, 02:45:04,VALID,1003.58,VALID,0,VALID,95.7348,VALID,0,VALID,23.8009,VALID,352,VALID,0.492188,
2008-09-11, 02:46:04,VALID,1003.57,VALID,0,VALID,95.7959,VALID,0,VALID,23.8787,VALID,352,VALID,0.494141,
2008-09-11, 02:47:04,VALID,1003.52,VALID,0,VALID,95.7806,VALID,0,VALID,23.9371,VALID,352,VALID,0.539453,
2008-09-11, 02:48:04,VALID,1003.49,VALID,0,VALID,95.7043,VALID,0,VALID,23.9389,VALID,352,VALID,0.337891,
2008-09-11, 02:49:04,VALID,1003.41,VALID,0,VALID,95.689,VALID,0,VALID,23.8964,VALID,352,VALID,0.212109,
2008-09-11, 02:50:04,VALID,1003.38,VALID,0,VALID,95.6356,VALID,0,VALID,23.9177,VALID,352,VALID,0.101172,
2008-09-11, 02:51:04,VALID,1003.36,VALID,0,VALID,95.4754,VALID,0,VALID,23.8982,VALID,352,VALID,0,
2008-09-11, 02:52:04,VALID,1003.33,VALID,0,VALID,95.3534,VALID,0,VALID,23.8398,VALID,352,VALID,0,
2008-09-11, 02:53:04,VALID,1003.31,VALID,0,VALID,95.3076,VALID,0,VALID,23.8027,VALID,352,VALID,0,
2008-09-11, 02:54:04,VALID,1003.33,VALID,0,VALID,95.3229,VALID,0,VALID,23.723,VALID,352,VALID,0,
2008-09-11, 02:55:04,VALID,1003.34,VALID,0,VALID,95.3229,VALID,0,VALID,23.7035,VALID,352,VALID,0,
2008-09-11, 02:56:04,VALID,1003.35,VALID,0,VALID,95.3152,VALID,0,VALID,23.6859,VALID,352,VALID,0,
2008-09-11, 02:57:04,VALID,1003.34,VALID,0,VALID,95.3381,VALID,0,VALID,23.6469,VALID,352,VALID,0,
2008-09-11, 02:58:04,VALID,1003.32,VALID,0,VALID,95.361,VALID,0,VALID,23.6469,VALID,352,VALID,0,
2008-09-11, 02:59:04,VALID,1003.31,VALID,0,VALID,95.4144,VALID,0,VALID,23.6062,VALID,352,VALID,0,
2008-09-11, 03:00:04,VALID,1003.3,VALID,0,VALID,95.4297,VALID,0,VALID,23.6275,VALID,352,VALID,0,
2008-09-11, 03:01:04,VALID,1003.28,VALID,0,VALID,95.506,VALID,0,VALID,23.6257,VALID,352,VALID,0,
2008-09-11, 03:02:04,VALID,1003.28,VALID,0,VALID,95.6662,VALID,0,VALID,23.6646,VALID,352,VALID,0,
2008-09-11, 03:03:04,VALID,1003.27,VALID,0,VALID,95.773,VALID,0,VALID,23.7035,VALID,352,VALID,0,
2008-09-11, 03:04:04,VALID,1003.29,VALID,0,VALID,95.834,VALID,0,VALID,23.7814,VALID,352,VALID,0,
2008-09-11, 03:05:04,VALID,1003.32,VALID,0,VALID,95.773,VALID,0,VALID,23.8009,VALID,352,VALID,0,
2008-09-11, 03:06:04,VALID,1003.34,VALID,0,VALID,95.6128,VALID,0,VALID,23.8027,VALID,352,VALID,0,
2008-09-11, 03:07:04,VALID,1003.37,VALID,0,VALID,95.506,VALID,0,VALID,23.7443,VALID,352,VALID,0,
2008-09-11, 03:08:04,VALID,1003.39,VALID,0,VALID,95.3686,VALID,0,VALID,23.6859,VALID,353,VALID,0,
2008-09-11, 03:09:04,VALID,1003.37,VALID,0,VALID,95.2389,VALID,0,VALID,23.5673,VALID,353,VALID,0,
2008-09-11, 03:10:04,VALID,1003.35,VALID,0,VALID,95.2161,VALID,0,VALID,23.5284,VALID,353,VALID,0,
2008-09-11, 03:11:04,VALID,1003.31,VALID,0,VALID,95.4678,VALID,0,VALID,23.5284,VALID,353,VALID,0,
2008-09-11, 03:12:04,VALID,1003.32,VALID,0,VALID,95.6204,VALID,0,VALID,23.5868,VALID,353,VALID,0,
2008-09-11, 03:13:04,VALID,1003.31,VALID,0,VALID,95.5441,VALID,0,VALID,23.5868,VALID,353,VALID,0,
2008-09-11, 03:14:04,VALID,1003.29,VALID,0,VALID,95.5212,VALID,0,VALID,23.5868,VALID,353,VALID,0,
2008-09-11, 03:15:04,VALID,1003.3,VALID,0,VALID,95.5975,VALID,0,VALID,23.608,VALID,353,VALID,0,
2008-09-11, 03:16:04,VALID,1003.28,VALID,0,VALID,95.5899,VALID,0,VALID,23.6062,VALID,353,VALID,0,
2008-09-11, 03:17:04,VALID,1003.27,VALID,0,VALID,95.5365,VALID,0,VALID,23.5868,VALID,353,VALID,0,
2008-09-11, 03:18:04,VALID,1003.25,VALID,0,VALID,95.5365,VALID,0,VALID,23.5885,VALID,353,VALID,0,
2008-09-11, 03:19:04,VALID,1003.26,VALID,0,VALID,95.506,VALID,0,VALID,23.5868,VALID,353,VALID,0,
2008-09-11, 03:20:04,VALID,1003.29,VALID,0,VALID,95.5822,VALID,0,VALID,23.5655,VALID,353,VALID,0,
2008-09-11, 03:21:04,VALID,1003.31,VALID,0,VALID,95.5517,VALID,0,VALID,23.5868,VALID,353,VALID,0,
2008-09-11, 03:22:04,VALID,1003.31,VALID,0,VALID,95.4754,VALID,0,VALID,23.5885,VALID,353,VALID,0,
2008-09-11, 03:23:04,VALID,1003.34,VALID,0,VALID,95.4831,VALID,0,VALID,23.5478,VALID,353,VALID,0,
2008-09-11, 03:24:04,VALID,1003.35,VALID,0,VALID,95.4831,VALID,0,VALID,23.5302,VALID,353,VALID,0,
2008-09-11, 03:25:04,VALID,1003.36,VALID,0,VALID,95.5441,VALID,0,VALID,23.5302,VALID,353,VALID,0,
2008-09-11, 03:26:04,VALID,1003.35,VALID,0,VALID,95.6051,VALID,0,VALID,23.5284,VALID,353,VALID,0,
2008-09-11, 03:27:04,VALID,1003.31,VALID,0,VALID,95.6814,VALID,0,VALID,23.5691,VALID,353,VALID,0,
2008-09-11, 03:28:04,VALID,1003.35,VALID,0,VALID,95.7043,VALID,0,VALID,23.608,VALID,353,VALID,0,
2008-09-11, 03:29:04,VALID,1003.34,VALID,0,VALID,95.6433,VALID,0,VALID,23.608,VALID,353,VALID,0,
2008-09-11, 03:30:04,VALID,1003.35,VALID,0,VALID,95.6356,VALID,0,VALID,23.608,VALID,353,VALID,0,
2008-09-11, 03:31:04,VALID,1003.38,VALID,0,VALID,95.5899,VALID,0,VALID,23.5673,VALID,360,VALID,0,
2008-09-11, 03:32:04,VALID,1003.42,VALID,0,VALID,95.5288,VALID,0,VALID,23.5673,VALID,41,VALID,0.519141,
2008-09-11, 03:33:04,VALID,1003.41,VALID,0,VALID,95.5517,VALID,0,VALID,23.5478,VALID,42,VALID,0.339844,
2008-09-11, 03:34:04,VALID,1003.45,VALID,0,VALID,95.567,VALID,0,VALID,23.5478,VALID,42,VALID,0.228125,
2008-09-11, 03:35:04,VALID,1003.41,VALID,0,VALID,95.6509,VALID,0,VALID,23.5885,VALID,42,VALID,0.199609,
2008-09-11, 03:36:04,VALID,1003.4,VALID,0,VALID,95.689,VALID,0,VALID,23.5868,VALID,42,VALID,0,
2008-09-11, 03:37:04,VALID,1003.42,VALID,0,VALID,95.7959,VALID,0,VALID,23.6452,VALID,42,VALID,0,
2008-09-11, 03:38:04,VALID,1003.42,VALID,0,VALID,95.8035,VALID,0,VALID,23.6841,VALID,41,VALID,0.476563,
2008-09-11, 03:39:04,VALID,1003.46,VALID,0,VALID,95.7882,VALID,0,VALID,23.7053,VALID,39,VALID,0.566797,
2008-09-11, 03:40:04,VALID,1003.48,VALID,0,VALID,95.6967,VALID,0,VALID,23.6646,VALID,34,VALID,0.723047,
2008-09-11, 03:41:04,VALID,1003.5,VALID,0,VALID,95.6738,VALID,0,VALID,23.7053,VALID,33,VALID,0.480859,
2008-09-11, 03:42:04,VALID,1003.45,VALID,0,VALID,95.6814,VALID,0,VALID,23.6646,VALID,33,VALID,0.106641,
2008-09-11, 03:43:04,VALID,1003.41,VALID,0,VALID,95.689,VALID,0,VALID,23.6646,VALID,33,VALID,0,
2008-09-11, 03:44:04,VALID,1003.41,VALID,0,VALID,95.7119,VALID,0,VALID,23.7035,VALID,33,VALID,0,
2008-09-11, 03:45:04,VALID,1003.42,VALID,0,VALID,95.7806,VALID,0,VALID,23.7248,VALID,33,VALID,0,
2008-09-11, 03:46:04,VALID,1003.42,VALID,0,VALID,95.7272,VALID,0,VALID,23.723,VALID,33,VALID,0,
2008-09-11, 03:47:04,VALID,1003.42,VALID,0,VALID,95.6738,VALID,0,VALID,23.7035,VALID,33,VALID,0.200391,
2008-09-11, 03:48:04,VALID,1003.39,VALID,0,VALID,95.4983,VALID,0,VALID,23.6452,VALID,33,VALID,0.703125,
2008-09-11, 03:49:04,VALID,1003.4,VALID,0,VALID,95.4678,VALID,0,VALID,23.5868,VALID,33,VALID,0.503906,
2008-09-11, 03:50:04,VALID,1003.43,VALID,0,VALID,95.4831,VALID,0,VALID,23.5673,VALID,33,VALID,0.314844,